Regional Weather Roundup
Issued by NWS Albany, NY

Home | Current Version | Previous Version | Text Only | Print | Product List | Glossary On
Versions: 1 2 3 4 5 6 7 8 9 10 11 12 13 14 15 16 17 18 19 20 21 22 23 24 25 26 27 28 29 30 31 32 33 34 35 36 37 38 39 40 41 42 43 44 45 46 47 48 49 50
000
ASUS41 KALY 272010
RWRALY

NEW YORK STATE HOURLY WEATHER ROUNDUP
NATIONAL WEATHER SERVICE ALBANY NY
400 PM EDT WED MAY 27 2015

NOTE: "FAIR" INDICATES FEW OR NO CLOUDS BELOW 12,000 FEET WITH NO
SIGNIFICANT WEATHER AND/OR NO OBSTRUCTIONS TO VISIBILITY.

NYZ032-033-038>043-046>054-057>066-NYZ062>081-272100-
EAST


CITY           SKY/WX    TMP DP  RH WIND       PRES   REMARKS
ALBANY         CLOUDY    83  67  58 S15G29    30.02R
GLENS FALLS    CLOUDY    74  68  81 SE5       30.00S
POUGHKEEPSIE   MOSUNNY   86  68  54 SE12G21   30.05F
NEWBURGH       PTSUNNY   86  70  58 SW14      30.08F HX  90
MONTGOMERY     MOSUNNY   86  71  60 S12       30.05F HX  91
WHITE PLAINS   MOSUNNY   78  66  66 S13G22    30.12S
ISLIP          PTSUNNY   71  61  70 S16G31    30.15F
NEW YORK CITY  MOSUNNY   76  62  62 S21G29    30.10F
CENTRAL PARK   SUNNY     80  64  58 S10G21    30.12F
$$

NYZ005>009-017-018-044>046-055-056-272100-
CENTRAL


CITY           SKY/WX    TMP DP  RH WIND       PRES   REMARKS
FULTON         PTSUNNY   81  65  58 VRB5      29.98F
SYRACUSE       PTSUNNY   83  61  47 W17       29.98F
ROME           PTSUNNY   82  64  54 SW13      30.00F
ELMIRA         PTSUNNY   81  64  56 SW14      30.02F
BINGHAMTON     CLOUDY    75  65  70 W9        30.07F
MONTICELLO     CLOUDY    70  64  83 W10G21    30.16R THUNDER
$$

NYZ026>034-041>043-272100-
NORTH


CITY           SKY/WX    TMP DP  RH WIND       PRES   REMARKS
WATERTOWN      MOSUNNY   76  64  66 SW8       29.97F
FORT DRUM      NOT AVBL
MASSENA        CLOUDY    80  62  54 SW21G36   29.92F
SARANAC LAKE   PTSUNNY   77  62  59 W10G18    29.98F
PLATTSBURGH    CLOUDY    76  69  79 SE9       29.93F
$$

NYZ001>004-010>016-019>021-272100-
WEST


CITY           SKY/WX    TMP DP  RH WIND       PRES   REMARKS
NIAGARA FALLS  MOSUNNY   81  58  45 SW23G35   29.98F
BUFFALO        MOSUNNY   80  57  45 W20G29    30.00F
DUNKIRK        LGT RAIN  79  60  52 SW15      30.02S
JAMESTOWN      PTSUNNY   75  55  50 SW13G20   30.08S
WELLSVILLE     MOSUNNY   77  57  50 SW10G18   30.09F
ROCHESTER      MOSUNNY   84  61  45 W12       29.98F
PENN YAN       PTSUNNY   82  58  43 SW12      30.02F
$$

             KEY
       WCI = WIND CHILL INDEX
       VSB = VISIBILITY
       HX  = HEAT INDEX
$$



USA.gov is the U.S. government's official web portal to all federal, state and local government web resources and services.